When you browse on this site, cookies collect data to enhance your experience and personalize the content and advertising you see.
Visit our Privacy Policy to learn more. By continuing to use the site, you agree to this use of cookies and data.
  • In Hungary
  • List of Countries
  • For 7 days
  • Water Temperature
  • Weather Map
  • News
  • Weather Widgets
  • user-avatar
    Login

    Hourly Weather Lozy

    Today, 25 August, Sunday

    Time Temperature Precipitation Wind Pressure Humidity
    00:00 +17°C° 0 mm 2 mps 765 mmHg 82%
    01:00 +17°C° 0 mm 2 mps 765 mmHg 82%
    02:00 +17°C° 0 mm 2 mps 765 mmHg 82%
    03:00 +17°C° 0 mm 2 mps 765 mmHg 82%
    04:00 +17°C° 0 mm 2 mps 765 mmHg 82%
    05:00 +18°C° 0 mm 2 mps 765 mmHg 78%
    06:00 +19°C° 0 mm 2 mps 765 mmHg 75%
    07:00 +20°C° 0 mm 2 mps 765 mmHg 69%
    08:00 +23°C° 0 mm 2 mps 765 mmHg 64%
    09:00 +24°C° 0 mm 2 mps 765 mmHg 59%
    10:00 +26°C° 0 mm 2 mps 765 mmHg 54%
    11:00 +27°C° 0 mm 2 mps 765 mmHg 51%
    12:00 +27°C° 0 mm 2 mps 765 mmHg 49%
    13:00 +28°C° 0 mm 2 mps 765 mmHg 46%
    14:00 +28°C° 0 mm 2 mps 764 mmHg 48%
    15:00 +28°C° 0 mm 3 mps 764 mmHg 49%
    16:00 +28°C° 0 mm 3 mps 764 mmHg 51%
    17:00 +26°C° 0 mm 3 mps 764 mmHg 57%
    18:00 +24°C° 0 mm 3 mps 764 mmHg 64%
    19:00 +21°C° 0 mm 2 mps 764 mmHg 70%
    20:00 +21°C° 0 mm 2 mps 764 mmHg 72%
    21:00 +20°C° 0 mm 2 mps 764 mmHg 75%
    22:00 +19°C° 0 mm 2 mps 764 mmHg 77%
    23:00 +19°C° 0 mm 2 mps 764 mmHg 78%

    Tomorrow, 26 August, Monday

    Time Temperature Precipitation Wind Pressure Humidity
    00:00 +18°C° 0 mm 2 mps 764 mmHg 79%
    01:00 +18°C° 0 mm 2 mps 764 mmHg 80%
    02:00 +17°C° 0 mm 2 mps 764 mmHg 81%
    03:00 +17°C° 0 mm 2 mps 764 mmHg 82%
    04:00 +17°C° 0 mm 2 mps 764 mmHg 83%
    05:00 +18°C° 0 mm 2 mps 764 mmHg 79%
    06:00 +19°C° 0 mm 2 mps 764 mmHg 76%
    07:00 +20°C° 0 mm 3 mps 764 mmHg 73%
    08:00 +22°C° 0 mm 3 mps 764 mmHg 67%
    09:00 +24°C° 0 mm 3 mps 764 mmHg 61%
    10:00 +26°C° 0 mm 3 mps 764 mmHg 56%
    11:00 +27°C° 0 mm 3 mps 764 mmHg 52%
    12:00 +28°C° 0 mm 3 mps 763 mmHg 49%
    13:00 +28°C° 0 mm 3 mps 763 mmHg 46%
    14:00 +28°C° 0 mm 3 mps 763 mmHg 47%
    15:00 +28°C° 0 mm 3 mps 763 mmHg 48%
    16:00 +28°C° 0 mm 3 mps 762 mmHg 49%
    17:00 +26°C° 0 mm 3 mps 762 mmHg 56%
    18:00 +24°C° 0 mm 3 mps 762 mmHg 62%
    19:00 +21°C° 0 mm 3 mps 762 mmHg 69%
    20:00 +21°C° 0 mm 3 mps 762 mmHg 70%
    21:00 +20°C° 0 mm 3 mps 762 mmHg 71%
    22:00 +19°C° 0 mm 3 mps 763 mmHg 72%
    23:00 +19°C° 0 mm 3 mps 762 mmHg 74%

    Day after tomorrow, 27 August, Tuesday

    Time Temperature Precipitation Wind Pressure Humidity
    00:00 +18°C° 0 mm 3 mps 762 mmHg 76%
    01:00 +18°C° 0 mm 3 mps 762 mmHg 78%
    02:00 +18°C° 0 mm 3 mps 762 mmHg 81%
    03:00 +18°C° 0 mm 3 mps 762 mmHg 83%
    04:00 +18°C° 0 mm 3 mps 762 mmHg 86%
    05:00 +19°C° 0 mm 3 mps 762 mmHg 83%
    06:00 +20°C° 0 mm 4 mps 762 mmHg 80%
    07:00 +21°C° 0 mm 4 mps 762 mmHg 77%
    08:00 +23°C° 0 mm 4 mps 762 mmHg 71%
    09:00 +26°C° 0 mm 4 mps 762 mmHg 66%
    10:00 +27°C° 0 mm 5 mps 762 mmHg 61%
    11:00 +28°C° 0 mm 5 mps 762 mmHg 58%
    12:00 +29°C° 0 mm 4 mps 762 mmHg 55%
    13:00 +30°C° 0 mm 4 mps 762 mmHg 51%
    14:00 +30°C° 0 mm 4 mps 762 mmHg 52%
    15:00 +30°C° 0 mm 4 mps 761 mmHg 53%
    16:00 +30°C° 0 mm 4 mps 761 mmHg 54%
    17:00 +28°C° 0 mm 4 mps 761 mmHg 60%
    18:00 +27°C° 0 mm 4 mps 761 mmHg 66%
    19:00 +25°C° 0 mm 4 mps 761 mmHg 72%
    20:00 +23°C° 0 mm 4 mps 761 mmHg 72%
    21:00 +23°C° 0 mm 4 mps 761 mmHg 73%
    22:00 +22°C° 0 mm 5 mps 761 mmHg 73%
    23:00 +22°C° 0 mm 5 mps 761 mmHg 72%

    28 August, Wednesday

    Time Temperature Precipitation Wind Pressure Humidity
    00:00 +22°C° 0 mm 5 mps 761 mmHg 71%
    01:00 +21°C° 0 mm 5 mps 761 mmHg 70%
    02:00 +21°C° 0 mm 5 mps 761 mmHg 71%
    03:00 +20°C° 0 mm 5 mps 761 mmHg 72%
    04:00 +20°C° 0 mm 5 mps 761 mmHg 73%
    05:00 +20°C° 0 mm 5 mps 761 mmHg 72%
    06:00 +21°C° 0 mm 5 mps 761 mmHg 72%
    07:00 +21°C° 0 mm 6 mps 760 mmHg 71%
    08:00 +23°C° 0 mm 6 mps 760 mmHg 65%
    09:00 +26°C° 0 mm 6 mps 760 mmHg 59%
    10:00 +28°C° 0 mm 6 mps 760 mmHg 53%
    11:00 +28°C° 0 mm 6 mps 760 mmHg 51%
    12:00 +29°C° 0 mm 6 mps 760 mmHg 49%
    13:00 +30°C° 0 mm 6 mps 759 mmHg 47%
    14:00 +29°C° 0 mm 6 mps 759 mmHg 49%
    15:00 +29°C° 0 mm 6 mps 759 mmHg 52%
    16:00 +29°C° 0 mm 5 mps 758 mmHg 54%
    17:00 +27°C° 0 mm 5 mps 758 mmHg 58%
    18:00 +26°C° 0 mm 5 mps 758 mmHg 62%
    19:00 +25°C° 0 mm 5 mps 758 mmHg 66%
    20:00 +23°C° 0 mm 5 mps 758 mmHg 66%
    21:00 +23°C° 0 mm 5 mps 759 mmHg 66%
    22:00 +23°C° 0 mm 6 mps 759 mmHg 66%
    23:00 +22°C° 0 mm 6 mps 759 mmHg 68%

    29 August, Thursday

    Time Temperature Precipitation Wind Pressure Humidity
    00:00 +22°C° 0 mm 6 mps 759 mmHg 70%
    01:00 +21°C° 0 mm 6 mps 759 mmHg 72%
    02:00 +21°C° 0.1 mm 6 mps 758 mmHg 73%
    03:00 +21°C° 0.1 mm 6 mps 758 mmHg 73%
    04:00 +21°C° 0.1 mm 6 mps 758 mmHg 74%
    05:00 +21°C° 0.2 mm 6 mps 758 mmHg 74%
    06:00 +21°C° 0.2 mm 6 mps 758 mmHg 74%
    07:00 +21°C° 0.2 mm 6 mps 758 mmHg 74%
    08:00 +22°C° 0.4 mm 6 mps 758 mmHg 71%
    09:00 +24°C° 0.4 mm 6 mps 758 mmHg 68%
    10:00 +26°C° 0.4 mm 6 mps 758 mmHg 64%
    11:00 +27°C° 0.9 mm 6 mps 758 mmHg 63%
    12:00 +27°C° 0.9 mm 5 mps 758 mmHg 61%
    13:00 +28°C° 0.9 mm 5 mps 758 mmHg 59%
    14:00 +28°C° 0.2 mm 5 mps 757 mmHg 59%
    15:00 +29°C° 0.2 mm 4 mps 757 mmHg 58%
    16:00 +29°C° 0.2 mm 4 mps 757 mmHg 58%
    17:00 +27°C° 0.3 mm 4 mps 757 mmHg 64%
    18:00 +25°C° 0.3 mm 4 mps 757 mmHg 70%
    19:00 +23°C° 0.3 mm 4 mps 757 mmHg 76%
    20:00 +22°C° 0.5 mm 3 mps 757 mmHg 80%
    21:00 +21°C° 0.5 mm 3 mps 758 mmHg 83%
    22:00 +20°C° 0.5 mm 2 mps 758 mmHg 86%
    23:00 +20°C° 0.9 mm 2 mps 758 mmHg 88%

    30 August, Friday

    Time Temperature Precipitation Wind Pressure Humidity
    00:00 +20°C° 0.9 mm 2 mps 758 mmHg 90%
    01:00 +20°C° 0.9 mm 3 mps 758 mmHg 91%
    02:00 +20°C° 0.4 mm 2 mps 758 mmHg 92%
    03:00 +20°C° 0.4 mm 2 mps 758 mmHg 94%
    04:00 +19°C° 0.4 mm 2 mps 758 mmHg 95%
    05:00 +20°C° 0 mm 2 mps 759 mmHg 93%
    06:00 +20°C° 0 mm 3 mps 759 mmHg 92%
    07:00 +21°C° 0 mm 3 mps 760 mmHg 90%
    08:00 +22°C° 0 mm 3 mps 760 mmHg 85%
    09:00 +24°C° 0 mm 3 mps 761 mmHg 80%
    10:00 +24°C° 0 mm 3 mps 761 mmHg 74%
    11:00 +25°C° 0 mm 4 mps 761 mmHg 72%
    12:00 +25°C° 0 mm 4 mps 761 mmHg 70%
    13:00 +25°C° 0 mm 4 mps 761 mmHg 68%
    14:00 +25°C° 0 mm 4 mps 762 mmHg 70%
    15:00 +23°C° 0 mm 4 mps 762 mmHg 72%
    16:00 +23°C° 0 mm 4 mps 762 mmHg 73%
    17:00 +21°C° 0 mm 4 mps 762 mmHg 80%
    18:00 +20°C° 0 mm 3 mps 762 mmHg 87%
    19:00 +18°C° 0 mm 2 mps 762 mmHg 94%
    20:00 +18°C° 0 mm 2 mps 763 mmHg 94%
    21:00 +17°C° 0 mm 2 mps 763 mmHg 95%
    22:00 +17°C° 0 mm 2 mps 763 mmHg 96%
    23:00 +16°C° 0 mm 2 mps 763 mmHg 96%
    Show more